DateTimeUTC,F1_A11,F1_S11,BsB_S11,BsG_S11,BsR_S11,BbsB_S11,BbsG_S11,BbsR_S11,BaB_A11,BaG_A11,BaR_A11,Tu_S11,T_S11,Uu_S11,U_S11,P_S11,T1_A11
2021-01-30T06:00:00Z,00000200,21000000,,,,,,,0000.04,-000.00,-000.20,15.8,23.4,,00.0,0639.3,30.9
2021-01-30T06:01:00Z,00000200,21000000,,,,,,,-000.09,0000.00,0000.35,15.7,23.4,,00.0,0639.3,30.8
2021-01-30T06:02:00Z,00000200,21000000,,,,,,,0000.08,0000.13,-000.17,15.7,23.4,,00.0,0639.3,30.8
2021-01-30T06:03:00Z,00000200,61000000,,,,,,,0000.35,0000.61,0000.34,15.7,23.4,,00.0,0639.3,30.8
2021-01-30T06:04:00Z,00000200,41000000,0000.38,0000.39,-000.07,0000.24,0000.16,-000.21,0000.36,0000.58,0000.28,16.0,23.1,,00.0,0640.1,30.9
2021-01-30T06:05:00Z,00000200,01000000,0000.59,-000.05,0000.34,0000.34,0000.08,0000.11,-000.16,-000.24,-000.23,16.1,23.1,,00.0,0640.2,30.9
2021-01-30T06:06:00Z,00000200,01000000,0000.30,0000.04,0000.25,-000.28,0000.20,-000.03,0000.05,0000.10,0000.40,16.2,23.1,,00.0,0640.2,30.9
2021-01-30T06:07:00Z,00000200,01000000,0000.35,0000.12,0000.25,0000.46,0000.08,0000.32,-000.11,-000.19,0000.07,16.3,23.2,,00.0,0640.2,30.9
2021-01-30T06:08:00Z,00000200,01000000,-000.01,0000.24,0000.08,0000.12,0000.12,-000.13,-000.01,-000.15,-000.20,16.3,23.2,,00.0,0640.2,30.9
2021-01-30T06:09:00Z,00000200,01000000,0000.52,0000.26,0000.31,0000.15,-000.02,-000.12,0000.26,0000.43,0000.20,16.4,23.2,,00.0,0640.2,30.9
2021-01-30T06:10:00Z,00000200,01000000,0000.36,0000.18,0000.37,0000.04,-000.02,0000.01,-000.12,-000.20,-000.15,16.3,23.2,,00.0,0640.2,30.9
2021-01-30T06:11:00Z,00000200,01000000,0000.03,0000.25,0000.16,0000.06,-000.13,-000.07,0000.36,0000.05,0000.11,16.2,23.1,,00.0,0640.2,30.9
2021-01-30T06:12:00Z,00000200,01000000,0000.09,0000.04,0000.21,0000.19,0000.12,-000.02,0000.18,-000.01,0000.44,16.2,23.1,,00.0,0640.2,30.9
2021-01-30T06:13:00Z,00000200,01000000,-000.36,0000.11,0000.37,0000.08,0000.33,0000.01,-000.30,0000.20,-000.28,16.1,23.0,,00.0,0640.2,30.9
2021-01-30T06:14:00Z,00000200,01000000,0000.23,0000.06,0000.33,0000.30,-000.01,-000.05,0000.09,-000.24,-000.29,16.0,23.0,,00.0,0640.2,30.9
2021-01-30T06:15:00Z,00000200,01000000,0000.55,0000.24,0000.36,0000.32,0000.16,-000.11,0000.09,0000.09,0000.24,16.0,23.0,,00.0,0640.2,30.8
2021-01-30T06:16:00Z,00000200,01000000,-000.00,0000.13,0000.16,-000.06,0000.09,0000.11,-000.26,-000.22,-000.25,15.9,22.9,,00.0,0640.2,30.8
2021-01-30T06:17:00Z,00000200,01000000,0000.16,0000.01,0000.14,-000.41,0000.34,0000.10,0000.59,0000.06,0000.39,15.9,22.9,,00.0,0640.1,30.8
2021-01-30T06:18:00Z,00000200,01000000,-000.06,0000.06,0000.17,-000.08,-000.05,0000.25,-000.38,0000.37,0000.20,16.0,22.9,,00.0,0640.1,30.8
2021-01-30T06:19:00Z,00000200,01000000,-000.03,0000.22,0000.24,0000.03,0000.08,0000.16,0000.11,0000.15,-000.26,16.0,22.9,,00.0,0640.1,30.9
2021-01-30T06:20:00Z,00000200,01000000,0000.94,0000.23,0000.22,-000.03,-000.16,-000.16,0000.70,0000.04,0000.26,16.1,23.0,,00.0,0640.1,30.9
2021-01-30T06:21:00Z,00000200,01000000,-000.39,-000.08,0000.31,-000.34,0000.06,-000.18,-000.32,0000.30,0000.21,16.2,23.0,,00.0,0640.1,30.9
2021-01-30T06:22:00Z,00000200,01000000,0001.07,0000.19,0000.28,-000.13,0000.35,-000.18,0000.24,0000.30,0000.14,16.3,23.0,,00.0,0640.1,30.9
2021-01-30T06:23:00Z,00000200,01000000,0000.07,0000.17,0000.21,-000.17,0000.10,0000.10,0000.06,-000.27,0000.17,16.4,23.1,,00.0,0640.1,30.9
2021-01-30T06:24:00Z,00000200,01000000,0000.30,-000.07,0000.11,-000.19,0000.03,0000.22,-000.09,0000.42,-000.35,16.4,23.1,,00.0,0640.1,30.9
2021-01-30T06:25:00Z,00000200,01000000,0000.59,0000.23,0000.03,0000.60,0000.19,0000.13,-000.06,-000.25,0000.19,16.5,23.2,,00.0,0640.1,30.9
2021-01-30T06:26:00Z,00000200,01000000,0000.96,0000.17,0000.36,-000.03,-000.01,0000.02,0000.12,0000.13,-000.22,16.5,23.2,,00.0,0640.1,30.9
2021-01-30T06:27:00Z,00000200,01000000,-000.32,-000.02,0000.25,0000.48,-000.07,-000.10,0000.18,0000.09,0000.16,16.4,23.1,,00.0,0640.1,30.9
2021-01-30T06:28:00Z,00000200,01000000,0000.41,-000.31,0000.20,0000.33,0000.24,0000.17,-000.33,0000.01,-000.13,16.4,23.1,,00.0,0640.1,30.9
2021-01-30T06:29:00Z,00000200,01000000,-000.01,0000.20,0000.25,0000.33,-000.10,0000.04,-000.02,-000.28,0000.33,16.3,23.1,,00.0,0640.2,30.9
2021-01-30T06:30:00Z,00000200,01000000,0000.16,0000.24,0000.30,0000.63,0000.20,0000.14,0000.26,-000.14,-000.34,16.2,23.0,,00.0,0640.2,30.9
2021-01-30T06:31:00Z,00000200,01000000,0000.34,-000.20,0000.42,0000.12,0000.08,-000.07,0000.17,-000.06,-000.11,16.2,23.0,,00.0,0640.2,30.9
2021-01-30T06:32:00Z,00000200,01000000,-000.53,0000.38,0000.32,-000.02,0000.17,0000.15,0000.21,0000.32,0000.53,16.1,23.0,,00.0,0640.1,30.9
2021-01-30T06:33:00Z,00000200,01000000,0000.05,-000.12,0000.48,0000.05,-000.13,0000.20,0000.09,0000.13,0000.30,16.2,23.0,,00.0,0640.1,30.9
2021-01-30T06:34:00Z,00000200,01000000,-000.41,0000.19,0000.43,-000.50,0000.18,-000.07,0000.22,0000.30,-000.25,16.2,23.0,,00.0,0640.1,30.9
2021-01-30T06:35:00Z,00000200,01000000,0000.23,0000.00,0000.04,-000.00,0000.18,0000.08,-000.20,-000.12,-000.03,16.3,23.1,,00.0,0640.1,30.9
2021-01-30T06:36:00Z,00000200,01000000,0000.03,0000.11,0000.04,0000.09,0000.22,-000.06,0000.24,0000.34,0000.28,16.4,23.1,,00.0,0640.1,30.9
2021-01-30T06:37:00Z,00000200,01000000,0000.58,-000.09,0000.37,0000.18,0000.09,0000.25,0000.35,0000.13,0000.07,16.4,23.1,,00.0,0640.1,30.9
2021-01-30T06:38:00Z,00000200,01000000,-000.28,0000.06,0000.27,0000.05,-000.03,0000.07,-000.27,0000.52,0000.31,16.5,23.2,,00.0,0640.1,30.9
2021-01-30T06:39:00Z,00000200,01000000,0000.26,0000.15,0000.33,0000.06,0000.02,0000.02,0000.20,-000.10,-000.17,16.6,23.2,,00.0,0640.1,30.9
2021-01-30T06:40:00Z,00000200,01000000,-000.40,0000.13,0000.16,0000.02,0000.31,0000.04,-000.22,-000.09,-000.13,16.6,23.2,,00.0,0640.2,30.9
2021-01-30T06:41:00Z,00000200,01000000,-000.08,0000.25,0000.33,0000.27,0000.05,0000.11,0000.50,-000.18,0000.32,16.6,23.2,,00.0,0640.2,30.9
2021-01-30T06:42:00Z,00000200,01000000,0000.45,0000.20,0000.04,0000.35,-000.03,0000.12,0000.12,0000.68,-000.15,16.6,23.2,,00.0,0640.2,30.9
2021-01-30T06:43:00Z,00000200,01000000,0000.25,0000.43,0000.19,0000.40,0000.08,0000.09,-000.29,-000.33,0000.15,16.5,23.2,,00.0,0640.2,30.9
2021-01-30T06:44:00Z,00000200,01000000,0000.50,0000.28,0000.35,0000.31,-000.11,0000.10,0000.24,0000.26,-000.24,16.5,23.2,,00.0,0640.2,30.9
2021-01-30T06:45:00Z,00000200,01000000,-000.41,0000.32,0000.17,-000.00,0000.14,0000.10,0000.08,-000.30,0000.18,16.4,23.2,,00.0,0640.2,30.9
2021-01-30T06:46:00Z,00000200,01000000,0000.16,-000.18,0000.44,-000.28,-000.02,-000.05,-000.22,-000.02,-000.24,16.3,23.1,,00.0,0640.2,30.9
2021-01-30T06:47:00Z,00000200,01000000,0000.46,-000.08,0000.21,-000.13,0000.21,0000.18,0000.45,-000.17,0000.29,16.3,23.1,,00.0,0640.1,30.9
2021-01-30T06:48:00Z,00000200,01000000,0000.48,0000.11,0000.29,0000.21,0000.17,-000.00,0000.02,0000.41,0000.04,16.3,23.1,,00.0,0640.1,30.9
2021-01-30T06:49:00Z,00000200,01000000,0000.09,-000.05,0000.25,0000.40,-000.04,-000.19,0000.44,0000.73,0000.47,16.4,23.1,,00.0,0640.1,30.9
2021-01-30T06:50:00Z,00000200,01000000,0000.15,0000.03,-000.05,0000.50,-000.10,-000.10,0000.03,-000.00,0000.10,16.5,23.2,,00.0,0640.1,30.9
2021-01-30T06:51:00Z,00000200,01000000,0000.73,-000.07,0000.21,-000.29,-000.18,-000.08,0000.41,0000.03,-000.04,16.5,23.2,,00.0,0640.0,30.9
2021-01-30T06:52:00Z,00000200,01000000,0000.51,-000.09,0000.41,0000.34,0000.09,-000.00,0000.09,0000.36,0000.27,16.6,23.3,,00.0,0640.0,30.9
2021-01-30T06:53:00Z,00000200,01000000,0000.02,0000.16,0000.04,0000.31,0000.36,-000.16,-000.17,0000.41,-000.33,16.7,23.3,,00.0,0640.0,30.9
2021-01-30T06:54:00Z,00000200,01000000,-000.17,-000.02,0000.18,-000.13,0000.04,0000.15,0000.21,-000.13,0000.24,16.7,23.3,,00.0,0640.0,30.9
2021-01-30T06:55:00Z,00000200,01000000,0000.35,0000.19,0000.15,0000.05,0000.07,-000.09,0000.59,0000.41,0000.23,16.7,23.3,,00.0,0640.0,30.9
2021-01-30T06:56:00Z,00000200,01000000,-000.18,0000.08,0000.00,0000.61,0000.11,0000.03,0000.05,-000.23,0000.04,16.6,23.3,,00.0,0640.0,30.9
2021-01-30T06:57:00Z,00000200,41000000,,,,,,,-000.88,-000.67,-000.49,16.7,23.3,,00.0,0640.1,30.9
2021-01-30T06:58:00Z,00000200,61000000,,,,,,,0000.41,0000.43,0000.56,16.1,23.4,,00.0,0639.1,30.9
2021-01-30T06:59:00Z,00000200,21000000,,,,,,,-000.05,0000.17,-000.30,16.1,23.5,,00.0,0639.0,30.9
